STARLINK-34775

Last updated on Tue Aug 26 2025 00:02:05 GMT+0000 (Coordinated Universal Time)

1 64934U 25158C 25237.63265886 .00019287 00000+0 49514-3 0 9992 2 64934 97.6017 100.1895 0001980 81.9531 278.1939 15.39364382 5814

Satellite not in orbit

STARLINK-34775